Location: C�an Torras
(41.5052°N, 1.9280°E)
Time: 18:03:47
(UTC+00:00)

Okean O Rocket - Pass Details

Date: 20 January 2021
Orbit: 622 x 645 km, 98.2° (Epoch: 03 March)

Event Time Altitude Azimuth Distance (km) Brightness Sun altitude
Rises 18:08:32 0° 188° (S) 2,941 5.3 -14.0°
Reaches altitude 10° 18:10:55 10° 198° (SSW) 2,035 4.6 -14.4°
Maximum altitude 18:14:55 33° 263° (W) 1,089 3.6 -15.1°
Drops below altitude 10° 18:18:56 10° 327° (NNW) 2,041 4.5 -15.9°
Sets 18:21:20 0° 337° (NNW) 2,952 5.2 -16.3°
